Time,TemperatureF,DewpointF,PressureIn,WindDirection,WindDirectionDegrees,WindSpeedMPH,WindSpeedGustMPH,Humidity,HourlyPrecipIn,Conditions,Clouds,dailyrainin,SoftwareType,DateUTC
2013-05-17 00:04:00,63.9,47.8,29.74,East,90,19.0,19.0,56,0.00,,,0.00,meteohub,2013-05-17 05:04:00,
2013-05-17 00:09:00,64.0,47.5,29.74,East,90,18.0,22.0,55,0.00,,,0.00,meteohub,2013-05-17 05:09:00,
2013-05-17 00:14:00,63.9,46.9,29.74,East,90,19.0,23.0,54,0.00,,,0.00,meteohub,2013-05-17 05:14:00,
2013-05-17 00:19:00,63.9,46.9,29.74,East,90,19.0,23.0,54,0.00,,,0.00,meteohub,2013-05-17 05:19:00,
2013-05-17 00:24:00,63.9,45.9,29.74,NNE,23,17.0,23.0,52,0.00,,,0.00,meteohub,2013-05-17 05:24:00,
2013-05-17 00:29:00,64.0,45.5,29.74,East,90,20.0,22.0,51,0.00,,,0.00,meteohub,2013-05-17 05:29:00,
2013-05-17 00:35:00,63.9,45.9,29.74,SSE,158,21.0,22.0,52,0.00,,,0.00,meteohub,2013-05-17 05:35:00,
2013-05-17 00:40:00,63.7,45.7,29.75,SE,135,18.0,23.0,52,0.00,,,0.00,meteohub,2013-05-17 05:40:00,
2013-05-17 00:46:00,63.5,45.0,29.75,ENE,68,24.0,24.0,51,0.00,,,0.00,meteohub,2013-05-17 05:46:00,
2013-05-17 00:51:00,63.3,45.0,29.75,East,90,20.0,24.0,51,0.00,,,0.00,meteohub,2013-05-17 05:51:00,
2013-05-17 00:56:00,63.3,43.9,29.75,NE,45,20.0,24.0,49,0.00,,,0.00,meteohub,2013-05-17 05:56:00,
2013-05-17 01:01:00,63.3,43.9,29.75,East,90,18.0,24.0,49,0.00,,,0.00,meteohub,2013-05-17 06:01:00,
2013-05-17 01:07:00,63.3,43.3,29.75,East,90,23.0,25.0,48,0.00,,,0.00,meteohub,2013-05-17 06:07:00,
2013-05-17 01:12:00,63.1,43.2,29.75,ENE,68,21.0,30.0,48,0.00,,,0.00,meteohub,2013-05-17 06:12:00,
2013-05-17 01:17:00,62.8,42.8,29.76,SE,135,24.0,30.0,48,0.00,,,0.00,meteohub,2013-05-17 06:17:00,
2013-05-17 01:27:00,62.6,42.6,29.76,SE,135,27.0,34.0,48,0.00,,,0.00,meteohub,2013-05-17 06:27:00,
2013-05-17 01:32:00,62.2,43.3,29.76,ESE,113,30.0,34.0,50,0.00,,,0.00,meteohub,2013-05-17 06:32:00,
2013-05-17 01:37:00,62.2,42.8,29.76,SE,135,25.0,34.0,49,0.00,,,0.00,meteohub,2013-05-17 06:37:00,
2013-05-17 01:43:00,62.1,42.6,29.77,SE,135,26.0,30.0,49,0.00,,,0.00,meteohub,2013-05-17 06:43:00,
2013-05-17 01:48:00,62.2,42.8,29.76,SE,135,26.0,30.0,49,0.00,,,0.00,meteohub,2013-05-17 06:48:00,
2013-05-17 01:53:00,62.1,42.6,29.77,East,90,21.0,29.0,49,0.00,,,0.00,meteohub,2013-05-17 06:53:00,
2013-05-17 01:58:00,61.7,42.8,29.76,East,90,23.0,29.0,50,0.00,,,0.00,meteohub,2013-05-17 06:58:00,
2013-05-17 02:04:00,61.7,42.8,29.76,SE,135,21.0,26.0,50,0.00,,,0.00,meteohub,2013-05-17 07:04:00,
2013-05-17 02:09:00,61.7,42.8,29.76,ESE,113,20.0,26.0,50,0.00,,,0.00,meteohub,2013-05-17 07:09:00,
2013-05-17 02:14:00,61.5,42.6,29.76,SE,135,21.0,24.0,50,0.00,,,0.00,meteohub,2013-05-17 07:14:00,
2013-05-17 02:20:00,61.5,42.6,29.76,SE,135,20.0,22.0,50,0.00,,,0.00,meteohub,2013-05-17 07:20:00,
2013-05-17 02:25:00,61.2,43.0,29.75,SE,135,16.0,21.0,51,0.00,,,0.00,meteohub,2013-05-17 07:25:00,
2013-05-17 02:30:00,61.0,42.8,29.75,SE,135,16.0,21.0,51,0.00,,,0.00,meteohub,2013-05-17 07:30:00,
2013-05-17 02:35:00,60.8,42.6,29.75,SE,135,16.0,21.0,51,0.00,,,0.00,meteohub,2013-05-17 07:35:00,
2013-05-17 02:40:00,60.6,43.0,29.75,SE,135,15.0,19.0,52,0.00,,,0.00,meteohub,2013-05-17 07:40:00,
2013-05-17 02:45:00,60.8,42.6,29.75,SE,135,17.0,20.0,51,0.00,,,0.00,meteohub,2013-05-17 07:45:00,
2013-05-17 02:50:00,61.0,42.8,29.75,SE,135,21.0,21.0,51,0.00,,,0.00,meteohub,2013-05-17 07:50:00,
2013-05-17 02:55:00,61.2,43.0,29.75,SE,135,19.0,21.0,51,0.00,,,0.00,meteohub,2013-05-17 07:55:00,
2013-05-17 03:00:00,61.2,43.0,29.75,SE,135,18.0,21.0,51,0.00,,,0.00,meteohub,2013-05-17 08:00:00,
2013-05-17 03:05:00,61.2,43.0,29.76,SE,135,15.0,21.0,51,0.00,,,0.00,meteohub,2013-05-17 08:05:00,
2013-05-17 03:10:00,61.0,42.8,29.75,SE,135,12.0,20.0,51,0.00,,,0.00,meteohub,2013-05-17 08:10:00,
2013-05-17 03:16:00,60.8,43.0,29.75,SE,135,12.0,18.0,52,0.00,,,0.00,meteohub,2013-05-17 08:16:00,
2013-05-17 03:21:00,60.4,43.2,29.75,East,90,15.0,15.0,53,0.00,,,0.00,meteohub,2013-05-17 08:21:00,
2013-05-17 03:26:00,60.4,43.2,29.75,SE,135,11.0,16.0,53,0.00,,,0.00,meteohub,2013-05-17 08:26:00,
2013-05-17 03:31:00,60.4,43.2,29.75,SE,135,14.0,16.0,53,0.00,,,0.00,meteohub,2013-05-17 08:31:00,
2013-05-17 03:36:00,60.6,43.0,29.76,SE,135,13.0,16.0,52,0.00,,,0.00,meteohub,2013-05-17 08:36:00,
2013-05-17 03:41:00,60.8,42.6,29.75,SE,135,13.0,15.0,51,0.00,,,0.00,meteohub,2013-05-17 08:41:00,
2013-05-17 03:47:00,61.0,42.8,29.75,SE,135,13.0,15.0,51,0.00,,,0.00,meteohub,2013-05-17 08:47:00,
2013-05-17 03:52:00,61.0,42.8,29.75,SE,135,11.0,15.0,51,0.00,,,0.00,meteohub,2013-05-17 08:52:00,
2013-05-17 03:57:00,61.0,42.8,29.75,SE,135,17.0,17.0,51,0.00,,,0.00,meteohub,2013-05-17 08:57:00,
2013-05-17 04:02:00,61.0,42.8,29.75,SE,135,14.0,17.0,51,0.00,,,0.00,meteohub,2013-05-17 09:02:00,
2013-05-17 04:08:00,60.8,42.6,29.75,SE,135,15.0,17.0,51,0.00,,,0.00,meteohub,2013-05-17 09:08:00,
2013-05-17 04:13:00,60.8,42.6,29.75,SE,135,15.0,17.0,51,0.00,,,0.00,meteohub,2013-05-17 09:13:00,
2013-05-17 04:18:00,61.0,42.8,29.75,SE,135,17.0,18.0,51,0.00,,,0.00,meteohub,2013-05-17 09:18:00,
2013-05-17 04:23:00,60.8,42.6,29.75,SE,135,15.0,19.0,51,0.00,,,0.00,meteohub,2013-05-17 09:23:00,
2013-05-17 04:28:00,60.8,43.0,29.75,SE,135,17.0,19.0,52,0.00,,,0.00,meteohub,2013-05-17 09:28:00,
2013-05-17 04:33:00,60.6,43.9,29.75,SE,135,15.0,19.0,54,0.00,,,0.00,meteohub,2013-05-17 09:33:00,
2013-05-17 04:39:00,60.4,44.2,29.75,SE,135,17.0,18.0,55,0.00,,,0.00,meteohub,2013-05-17 09:39:00,
2013-05-17 04:44:00,60.3,44.1,29.75,SE,135,17.0,18.0,55,0.00,,,0.00,meteohub,2013-05-17 09:44:00,
2013-05-17 04:49:00,60.3,44.4,29.75,SE,135,19.0,19.0,56,0.00,,,0.00,meteohub,2013-05-17 09:49:00,
2013-05-17 04:54:00,60.3,44.4,29.75,SE,135,21.0,21.0,56,0.00,,,0.00,meteohub,2013-05-17 09:54:00,
2013-05-17 05:00:00,60.3,44.4,29.75,SE,135,17.0,19.0,56,0.00,,,0.00,meteohub,2013-05-17 10:00:00,
2013-05-17 05:05:00,60.3,44.4,29.75,SE,135,19.0,21.0,56,0.00,,,0.00,meteohub,2013-05-17 10:05:00,
2013-05-17 05:10:00,60.3,44.4,29.75,SE,135,16.0,22.0,56,0.00,,,0.00,meteohub,2013-05-17 10:10:00,
2013-05-17 05:15:00,60.3,44.1,29.75,SE,135,15.0,22.0,55,0.00,,,0.00,meteohub,2013-05-17 10:15:00,
2013-05-17 05:21:00,60.3,44.1,29.75,SE,135,18.0,21.0,55,0.00,,,0.00,meteohub,2013-05-17 10:21:00,
2013-05-17 05:26:00,60.3,44.1,29.75,SE,135,19.0,21.0,55,0.00,,,0.00,meteohub,2013-05-17 10:26:00,
2013-05-17 05:31:00,60.3,44.4,29.75,SE,135,17.0,21.0,56,0.00,,,0.00,meteohub,2013-05-17 10:31:00,
2013-05-17 05:36:00,60.3,44.4,29.76,SE,135,18.0,21.0,56,0.00,,,0.00,meteohub,2013-05-17 10:36:00,
2013-05-17 05:41:00,60.3,45.0,29.76,SE,135,15.0,21.0,57,0.00,,,0.00,meteohub,2013-05-17 10:41:00,
2013-05-17 05:46:00,60.1,44.8,29.76,SE,135,14.0,20.0,57,0.00,,,0.00,meteohub,2013-05-17 10:46:00,
2013-05-17 05:51:00,60.1,45.3,29.76,SE,135,17.0,18.0,58,0.00,,,0.00,meteohub,2013-05-17 10:51:00,
2013-05-17 05:56:00,59.9,45.5,29.76,SE,135,17.0,17.0,59,0.00,,,0.00,meteohub,2013-05-17 10:56:00,
2013-05-17 06:01:00,59.9,45.5,29.77,SE,135,16.0,17.0,59,0.00,,,0.00,meteohub,2013-05-17 11:01:00,
2013-05-17 06:06:00,59.9,46.0,29.77,SE,135,16.0,18.0,60,0.00,,,0.00,meteohub,2013-05-17 11:06:00,
2013-05-17 06:11:00,59.9,46.0,29.77,SE,135,16.0,18.0,60,0.00,,,0.00,meteohub,2013-05-17 11:11:00,
2013-05-17 06:16:00,59.9,46.0,29.77,SE,135,14.0,18.0,60,0.00,,,0.00,meteohub,2013-05-17 11:16:00,
2013-05-17 06:22:00,59.9,46.4,29.77,SE,135,14.0,17.0,61,0.00,,,0.00,meteohub,2013-05-17 11:22:00,
2013-05-17 06:27:00,59.7,46.2,29.78,SE,135,14.0,17.0,61,0.00,,,0.00,meteohub,2013-05-17 11:27:00,
2013-05-17 06:32:00,59.7,46.8,29.78,East,90,11.0,15.0,62,0.00,,,0.00,meteohub,2013-05-17 11:32:00,
2013-05-17 06:37:00,59.7,46.8,29.78,SE,135,11.0,15.0,62,0.00,,,0.00,meteohub,2013-05-17 11:37:00,
2013-05-17 06:42:00,59.7,47.1,29.78,SE,135,15.0,15.0,63,0.00,,,0.00,meteohub,2013-05-17 11:42:00,
2013-05-17 06:47:00,59.7,47.1,29.78,SE,135,15.0,15.0,63,0.00,,,0.00,meteohub,2013-05-17 11:47:00,
2013-05-17 06:52:00,59.7,47.5,29.78,East,90,15.0,15.0,64,0.00,,,0.00,meteohub,2013-05-17 11:52:00,
2013-05-17 06:57:00,59.7,48.0,29.78,SE,135,14.0,17.0,65,0.00,,,0.00,meteohub,2013-05-17 11:57:00,
2013-05-17 07:02:00,59.5,48.2,29.78,SE,135,15.0,17.0,66,0.00,,,0.00,meteohub,2013-05-17 12:02:00,
2013-05-17 07:07:00,59.7,48.7,29.78,SE,135,15.0,17.0,67,0.00,,,0.00,meteohub,2013-05-17 12:07:00,
2013-05-17 07:13:00,59.7,49.1,29.78,SE,135,17.0,17.0,68,0.00,,,0.00,meteohub,2013-05-17 12:13:00,
2013-05-17 07:18:00,59.9,50.2,29.78,East,90,15.0,17.0,70,0.00,,,0.00,meteohub,2013-05-17 12:18:00,
2013-05-17 07:23:00,59.9,50.2,29.78,East,90,15.0,17.0,70,0.00,,,0.00,meteohub,2013-05-17 12:23:00,
2013-05-17 07:28:00,60.1,50.7,29.78,SE,135,15.0,17.0,71,0.00,,,0.00,meteohub,2013-05-17 12:28:00,
2013-05-17 07:33:00,60.3,50.9,29.78,East,90,15.0,17.0,71,0.00,,,0.00,meteohub,2013-05-17 12:33:00,
2013-05-17 07:38:00,60.3,51.3,29.78,SE,135,13.0,19.0,72,0.00,,,0.00,meteohub,2013-05-17 12:38:00,
2013-05-17 07:44:00,60.4,51.8,29.78,East,90,17.0,19.0,73,0.00,,,0.00,meteohub,2013-05-17 12:44:00,
2013-05-17 07:49:00,60.4,52.5,29.79,SE,135,17.0,20.0,75,0.00,,,0.00,meteohub,2013-05-17 12:49:00,
2013-05-17 07:54:00,60.4,52.9,29.79,ESE,113,12.0,20.0,76,0.00,,,0.00,meteohub,2013-05-17 12:54:00,
2013-05-17 07:59:00,60.4,54.0,29.78,SE,135,15.0,20.0,79,0.00,,,0.00,meteohub,2013-05-17 12:59:00,
2013-05-17 08:05:00,60.4,54.3,29.79,SE,135,16.0,18.0,80,0.00,,,0.00,meteohub,2013-05-17 13:05:00,
2013-05-17 08:10:00,60.4,54.5,29.80,East,90,17.0,21.0,81,0.00,,,0.00,meteohub,2013-05-17 13:10:00,
2013-05-17 08:15:00,60.4,54.9,29.79,SE,135,18.0,21.0,82,0.00,,,0.00,meteohub,2013-05-17 13:15:00,
2013-05-17 08:20:00,60.3,55.0,29.79,SE,135,15.0,20.0,83,0.00,,,0.00,meteohub,2013-05-17 13:20:00,
2013-05-17 08:25:00,60.1,54.9,29.79,SE,135,17.0,20.0,83,0.00,,,0.00,meteohub,2013-05-17 13:25:00,
2013-05-17 08:30:00,59.9,55.0,29.79,SE,135,19.0,22.0,84,0.00,,,0.00,meteohub,2013-05-17 13:30:00,
2013-05-17 08:35:00,59.9,55.4,29.79,SE,135,20.0,22.0,85,0.00,,,0.00,meteohub,2013-05-17 13:35:00,
2013-05-17 08:41:00,59.9,55.4,29.80,SE,135,17.0,22.0,85,0.00,,,0.00,meteohub,2013-05-17 13:41:00,
2013-05-17 08:46:00,59.7,55.6,29.80,East,90,15.0,22.0,86,0.00,,,0.00,meteohub,2013-05-17 13:46:00,
2013-05-17 08:51:00,59.7,55.6,29.80,SE,135,21.0,22.0,86,0.00,,,0.00,meteohub,2013-05-17 13:51:00,
2013-05-17 08:56:00,59.7,55.8,29.80,East,90,17.0,21.0,87,0.00,,,0.00,meteohub,2013-05-17 13:56:00,
2013-05-17 09:01:00,59.7,55.8,29.80,East,90,15.0,21.0,87,0.00,,,0.00,meteohub,2013-05-17 14:01:00,
2013-05-17 09:06:00,59.7,55.8,29.80,SE,135,19.0,21.0,87,0.00,,,0.00,meteohub,2013-05-17 14:06:00,
2013-05-17 09:11:00,59.7,55.8,29.80,SE,135,15.0,21.0,87,0.00,,,0.00,meteohub,2013-05-17 14:11:00,
2013-05-17 09:16:00,59.7,55.8,29.80,East,90,15.0,21.0,87,0.00,,,0.00,meteohub,2013-05-17 14:16:00,
2013-05-17 09:22:00,59.9,55.9,29.80,SE,135,17.0,19.0,87,0.00,,,0.00,meteohub,2013-05-17 14:22:00,
2013-05-17 09:27:00,59.9,55.9,29.80,SE,135,17.0,22.0,87,0.00,,,0.00,meteohub,2013-05-17 14:27:00,
2013-05-17 09:32:00,59.9,55.9,29.80,SE,135,16.0,22.0,87,0.00,,,0.00,meteohub,2013-05-17 14:32:00,
2013-05-17 09:37:00,59.9,55.9,29.80,East,90,17.0,22.0,87,0.00,,,0.00,meteohub,2013-05-17 14:37:00,
2013-05-17 09:43:00,59.7,55.8,29.80,East,90,16.0,20.0,87,0.00,,,0.00,meteohub,2013-05-17 14:43:00,
2013-05-17 09:48:00,59.7,55.8,29.80,SE,135,19.0,21.0,87,0.00,,,0.00,meteohub,2013-05-17 14:48:00,
2013-05-17 09:53:00,59.7,55.8,29.80,SE,135,16.0,21.0,87,0.00,,,0.00,meteohub,2013-05-17 14:53:00,
2013-05-17 09:58:00,59.7,55.8,29.80,SE,135,17.0,21.0,87,0.00,,,0.00,meteohub,2013-05-17 14:58:00,
2013-05-17 10:03:00,59.9,55.9,29.80,ESE,113,13.0,21.0,87,0.00,,,0.00,meteohub,2013-05-17 15:03:00,
2013-05-17 10:08:00,59.9,55.8,29.80,SE,135,15.0,21.0,86,0.00,,,0.00,meteohub,2013-05-17 15:08:00,
2013-05-17 10:13:00,59.9,55.8,29.80,SSW,203,15.0,21.0,86,0.00,,,0.00,meteohub,2013-05-17 15:13:00,
2013-05-17 10:18:00,60.1,55.9,29.80,SE,135,17.0,19.0,86,0.00,,,0.00,meteohub,2013-05-17 15:18:00,
2013-05-17 10:24:00,60.3,56.1,29.79,East,90,16.0,19.0,86,0.00,,,0.00,meteohub,2013-05-17 15:24:00,
2013-05-17 10:29:00,60.4,56.3,29.80,SE,135,18.0,19.0,86,0.00,,,0.00,meteohub,2013-05-17 15:29:00,
2013-05-17 10:34:00,60.3,55.8,29.80,SE,135,15.0,20.0,85,0.00,,,0.00,meteohub,2013-05-17 15:34:00,
2013-05-17 10:39:00,60.4,55.9,29.80,SE,135,21.0,22.0,85,0.00,,,0.00,meteohub,2013-05-17 15:39:00,
2013-05-17 10:44:00,60.4,55.9,29.80,SE,135,17.0,22.0,85,0.00,,,0.00,meteohub,2013-05-17 15:44:00,
2013-05-17 10:49:00,60.8,55.9,29.80,SE,135,18.0,22.0,84,0.00,,,0.00,meteohub,2013-05-17 15:49:00,
2013-05-17 10:54:00,61.0,56.1,29.80,East,90,17.0,22.0,84,0.00,,,0.00,meteohub,2013-05-17 15:54:00,
2013-05-17 11:00:00,61.0,55.8,29.80,SE,135,23.0,23.0,83,0.00,,,0.00,meteohub,2013-05-17 16:00:00,
2013-05-17 11:05:00,61.2,55.9,29.80,SE,135,20.0,25.0,83,0.00,,,0.00,meteohub,2013-05-17 16:05:00,
2013-05-17 11:10:00,61.7,56.1,29.80,SE,135,21.0,25.0,82,0.00,,,0.00,meteohub,2013-05-17 16:10:00,
2013-05-17 11:15:00,61.9,56.3,29.80,East,90,23.0,25.0,82,0.00,,,0.00,meteohub,2013-05-17 16:15:00,
2013-05-17 11:21:00,62.2,56.3,29.80,SE,135,23.0,29.0,81,0.00,,,0.00,meteohub,2013-05-17 16:21:00,
2013-05-17 11:26:00,61.9,55.9,29.80,SE,135,21.0,29.0,81,0.00,,,0.00,meteohub,2013-05-17 16:26:00,
2013-05-17 11:31:00,62.1,56.1,29.81,SE,135,23.0,29.0,81,0.00,,,0.00,meteohub,2013-05-17 16:31:00,
2013-05-17 11:36:00,62.6,56.3,29.81,SE,135,22.0,29.0,80,0.00,,,0.00,meteohub,2013-05-17 16:36:00,
2013-05-17 11:41:00,62.4,56.1,29.80,SE,135,22.0,25.0,80,0.00,,,0.00,meteohub,2013-05-17 16:41:00,
2013-05-17 11:46:00,62.6,55.9,29.81,SE,135,23.0,25.0,79,0.00,,,0.00,meteohub,2013-05-17 16:46:00,
2013-05-17 11:51:00,62.4,56.1,29.81,SE,135,20.0,24.0,80,0.00,,,0.00,meteohub,2013-05-17 16:51:00,
2013-05-17 11:56:00,62.2,55.9,29.81,SE,135,19.0,23.0,80,0.00,,,0.00,meteohub,2013-05-17 16:56:00,
2013-05-17 12:01:00,61.9,55.9,29.81,SE,135,18.0,23.0,81,0.00,,,0.00,meteohub,2013-05-17 17:01:00,
2013-05-17 12:06:00,62.2,56.3,29.81,SE,135,15.0,22.0,81,0.00,,,0.00,meteohub,2013-05-17 17:06:00,
2013-05-17 12:12:00,62.4,56.8,29.81,SE,135,16.0,22.0,82,0.00,,,0.00,meteohub,2013-05-17 17:12:00,
2013-05-17 12:17:00,62.8,56.8,29.81,SE,135,16.0,22.0,81,0.00,,,0.00,meteohub,2013-05-17 17:17:00,
2013-05-17 12:22:00,63.1,57.2,29.81,SE,135,20.0,20.0,81,0.00,,,0.00,meteohub,2013-05-17 17:22:00,
2013-05-17 12:27:00,63.1,57.2,29.81,SE,135,22.0,23.0,81,0.00,,,0.00,meteohub,2013-05-17 17:27:00,
2013-05-17 12:32:00,63.0,56.7,29.81,SE,135,20.0,23.0,80,0.00,,,0.00,meteohub,2013-05-17 17:32:00,
2013-05-17 12:37:00,63.5,57.2,29.81,SE,135,21.0,23.0,80,0.00,,,0.00,meteohub,2013-05-17 17:37:00,
2013-05-17 12:43:00,63.3,57.0,29.81,SE,135,22.0,22.0,80,0.00,,,0.00,meteohub,2013-05-17 17:43:00,
2013-05-17 12:48:00,63.0,56.7,29.81,SE,135,22.0,24.0,80,0.00,,,0.00,meteohub,2013-05-17 17:48:00,
2013-05-17 12:54:00,62.6,56.3,29.81,East,90,18.0,24.0,80,0.00,,,0.00,meteohub,2013-05-17 17:54:00,
2013-05-17 12:59:00,62.6,56.3,29.81,East,90,21.0,24.0,80,0.00,,,0.00,meteohub,2013-05-17 17:59:00,
2013-05-17 13:04:00,62.6,56.7,29.81,SE,135,17.0,23.0,81,0.00,,,0.00,meteohub,2013-05-17 18:04:00,
2013-05-17 13:09:00,62.6,56.7,29.81,SE,135,18.0,23.0,81,0.00,,,0.00,meteohub,2013-05-17 18:09:00,
2013-05-17 13:15:00,62.6,56.7,29.80,SE,135,19.0,23.0,81,0.00,,,0.00,meteohub,2013-05-17 18:15:00,
2013-05-17 13:20:00,62.8,57.2,29.81,SE,135,24.0,25.0,82,0.00,,,0.00,meteohub,2013-05-17 18:20:00,
2013-05-17 13:25:00,62.8,57.2,29.80,SE,135,24.0,26.0,82,0.00,,,0.00,meteohub,2013-05-17 18:25:00,
2013-05-17 13:31:00,63.3,57.7,29.80,SE,135,21.0,26.0,82,0.00,,,0.00,meteohub,2013-05-17 18:31:00,
2013-05-17 13:36:00,63.9,58.3,29.79,SE,135,27.0,27.0,82,0.00,,,0.00,meteohub,2013-05-17 18:36:00,
2013-05-17 13:41:00,64.8,59.2,29.80,SE,135,20.0,27.0,82,0.00,,,0.00,meteohub,2013-05-17 18:41:00,
2013-05-17 13:46:00,65.1,59.2,29.80,SE,135,23.0,27.0,81,0.00,,,0.00,meteohub,2013-05-17 18:46:00,
2013-05-17 13:51:00,66.0,59.7,29.80,SE,135,24.0,27.0,80,0.00,,,0.00,meteohub,2013-05-17 18:51:00,
2013-05-17 13:57:00,66.4,59.0,29.79,East,90,23.0,27.0,77,0.00,,,0.00,meteohub,2013-05-17 18:57:00,
2013-05-17 14:02:00,65.5,58.5,29.79,NE,45,22.0,26.0,78,0.00,,,0.00,meteohub,2013-05-17 19:02:00,
2013-05-17 14:07:00,66.6,59.2,29.79,East,90,27.0,27.0,77,0.00,,,0.00,meteohub,2013-05-17 19:07:00,
2013-05-17 14:12:00,66.7,59.0,29.79,SE,135,27.0,28.0,76,0.00,,,0.00,meteohub,2013-05-17 19:12:00,
2013-05-17 14:35:00,66.9,58.8,29.80,SE,135,27.0,28.0,75,0.00,,,0.00,meteohub,2013-05-17 19:35:00,
2013-05-17 14:40:00,66.7,58.1,29.79,East,90,27.0,28.0,74,0.00,,,0.00,meteohub,2013-05-17 19:40:00,
2013-05-17 14:45:00,66.9,58.3,29.78,SE,135,28.0,31.0,74,0.00,,,0.00,meteohub,2013-05-17 19:45:00,
2013-05-17 14:51:00,67.1,58.5,29.79,SE,135,25.0,31.0,74,0.00,,,0.00,meteohub,2013-05-17 19:51:00,
2013-05-17 14:56:00,67.5,58.5,29.78,SE,135,30.0,31.0,73,0.00,,,0.00,meteohub,2013-05-17 19:56:00,
2013-05-17 15:01:00,67.3,58.6,29.77,East,90,30.0,31.0,74,0.00,,,0.00,meteohub,2013-05-17 20:01:00,
2013-05-17 15:06:00,68.4,59.4,29.76,SE,135,25.0,31.0,73,0.00,,,0.00,meteohub,2013-05-17 20:06:00,
2013-05-17 15:11:00,68.2,58.8,29.76,SE,135,30.0,31.0,72,0.00,,,0.00,meteohub,2013-05-17 20:11:00,
2013-05-17 15:17:00,67.3,58.3,29.77,SE,135,30.0,31.0,73,0.00,,,0.00,meteohub,2013-05-17 20:17:00,
2013-05-17 15:22:00,67.1,58.5,29.77,SE,135,28.0,32.0,74,0.00,,,0.00,meteohub,2013-05-17 20:22:00,
2013-05-17 15:27:00,67.5,58.5,29.77,East,90,23.0,32.0,73,0.00,,,0.00,meteohub,2013-05-17 20:27:00,
2013-05-17 15:32:00,67.6,58.6,29.77,SE,135,24.0,32.0,73,0.00,,,0.00,meteohub,2013-05-17 20:32:00,
2013-05-17 15:37:00,69.4,59.5,29.77,SE,135,30.0,31.0,71,0.00,,,0.00,meteohub,2013-05-17 20:37:00,
2013-05-17 15:42:00,69.8,58.8,29.76,SE,135,27.0,31.0,68,0.00,,,0.00,meteohub,2013-05-17 20:42:00,
2013-05-17 15:47:00,68.9,58.3,29.76,SE,135,28.0,30.0,69,0.00,,,0.00,meteohub,2013-05-17 20:47:00,
2013-05-17 15:52:00,68.5,57.9,29.77,SE,135,25.0,31.0,69,0.00,,,0.00,meteohub,2013-05-17 20:52:00,
2013-05-17 15:58:00,67.6,57.9,29.76,East,90,23.0,31.0,71,0.00,,,0.00,meteohub,2013-05-17 20:58:00,
2013-05-17 16:03:00,67.3,57.6,29.77,SE,135,27.0,31.0,71,0.00,,,0.00,meteohub,2013-05-17 21:03:00,
2013-05-17 16:08:00,66.2,56.8,29.77,SE,135,31.0,31.0,72,0.00,,,0.00,meteohub,2013-05-17 21:08:00,
2013-05-17 16:13:00,66.0,57.2,29.77,East,90,30.0,31.0,73,0.00,,,0.00,meteohub,2013-05-17 21:13:00,
2013-05-17 16:18:00,64.4,55.6,29.76,East,90,30.0,31.0,73,0.00,,,0.00,meteohub,2013-05-17 21:18:00,
2013-05-17 16:23:00,65.5,57.4,29.76,ENE,68,19.0,31.0,75,0.00,,,0.00,meteohub,2013-05-17 21:23:00,
2013-05-17 16:28:00,64.9,56.1,29.75,East,90,26.0,30.0,73,0.00,,,0.00,meteohub,2013-05-17 21:28:00,
2013-05-17 16:33:00,64.6,56.5,29.76,East,90,25.0,30.0,75,0.00,,,0.00,meteohub,2013-05-17 21:33:00,
2013-05-17 16:38:00,64.2,55.8,29.76,SE,135,23.0,33.0,74,0.00,,,0.00,meteohub,2013-05-17 21:38:00,
2013-05-17 16:43:00,64.2,56.1,29.76,SE,135,32.0,33.0,75,0.00,,,0.00,meteohub,2013-05-17 21:43:00,
2013-05-17 16:49:00,64.2,56.5,29.76,East,90,25.0,33.0,76,0.00,,,0.00,meteohub,2013-05-17 21:49:00,
2013-05-17 16:54:00,64.2,56.1,29.76,East,90,27.0,32.0,75,0.00,,,0.00,meteohub,2013-05-17 21:54:00,
2013-05-17 16:59:00,65.7,57.6,29.76,East,90,27.0,32.0,75,0.00,,,0.00,meteohub,2013-05-17 21:59:00,
2013-05-17 17:04:00,65.8,57.4,29.77,SE,135,22.0,32.0,74,0.00,,,0.00,meteohub,2013-05-17 22:04:00,
2013-05-17 17:09:00,66.4,57.4,29.77,SE,135,25.0,27.0,73,0.00,,,0.00,meteohub,2013-05-17 22:09:00,
2013-05-17 17:14:00,66.9,57.6,29.76,NE,45,22.0,31.0,72,0.00,,,0.00,meteohub,2013-05-17 22:14:00,
2013-05-17 17:19:00,68.0,57.9,29.77,East,90,27.0,31.0,70,0.00,,,0.00,meteohub,2013-05-17 22:19:00,
2013-05-17 17:24:00,66.9,57.2,29.77,SE,135,25.0,31.0,71,0.00,,,0.00,meteohub,2013-05-17 22:24:00,
2013-05-17 17:29:00,66.6,57.2,29.77,SE,135,28.0,28.0,72,0.00,,,0.00,meteohub,2013-05-17 22:29:00,
2013-05-17 17:34:00,66.9,57.6,29.76,ESE,113,25.0,30.0,72,0.00,,,0.00,meteohub,2013-05-17 22:34:00,
2013-05-17 17:39:00,67.6,57.9,29.76,SE,135,27.0,33.0,71,0.00,,,0.00,meteohub,2013-05-17 22:39:00,
2013-05-17 17:44:00,68.0,57.9,29.76,SE,135,30.0,33.0,70,0.00,,,0.00,meteohub,2013-05-17 22:44:00,
2013-05-17 17:49:00,68.2,58.1,29.77,SE,135,28.0,33.0,70,0.00,,,0.00,meteohub,2013-05-17 22:49:00,
2013-05-17 17:54:00,68.4,58.3,29.77,SE,135,29.0,31.0,70,0.00,,,0.00,meteohub,2013-05-17 22:54:00,
2013-05-17 18:00:00,68.2,58.1,29.76,SE,135,25.0,31.0,70,0.00,,,0.00,meteohub,2013-05-17 23:00:00,
2013-05-17 18:05:00,66.9,57.2,29.76,East,90,26.0,31.0,71,0.00,,,0.00,meteohub,2013-05-17 23:05:00,
2013-05-17 18:10:00,66.2,56.8,29.76,SE,135,27.0,30.0,72,0.00,,,0.00,meteohub,2013-05-17 23:10:00,
2013-05-17 18:15:00,65.7,57.2,29.77,SE,135,26.0,30.0,74,0.00,,,0.00,meteohub,2013-05-17 23:15:00,
2013-05-17 18:20:00,65.8,57.4,29.77,ESE,113,25.0,31.0,74,0.00,,,0.00,meteohub,2013-05-17 23:20:00,
2013-05-17 18:25:00,65.8,57.4,29.76,SE,135,24.0,31.0,74,0.00,,,0.00,meteohub,2013-05-17 23:25:00,
2013-05-17 18:30:00,65.8,57.4,29.75,SE,135,27.0,31.0,74,0.00,,,0.00,meteohub,2013-05-17 23:30:00,
2013-05-17 18:35:00,66.7,57.7,29.76,SE,135,23.0,29.0,73,0.00,,,0.00,meteohub,2013-05-17 23:35:00,
2013-05-17 18:40:00,66.6,57.2,29.76,East,90,22.0,29.0,72,0.00,,,0.00,meteohub,2013-05-17 23:40:00,
2013-05-17 18:45:00,65.7,57.2,29.75,SE,135,26.0,29.0,74,0.00,,,0.00,meteohub,2013-05-17 23:45:00,
2013-05-17 18:50:00,64.6,56.5,29.76,SE,135,27.0,27.0,75,0.00,,,0.00,meteohub,2013-05-17 23:50:00,
2013-05-17 18:55:00,64.8,57.0,29.75,SE,135,27.0,27.0,76,0.00,,,0.00,meteohub,2013-05-17 23:55:00,
2013-05-17 19:00:00,65.3,57.6,29.76,SE,135,26.0,30.0,76,0.00,,,0.00,meteohub,2013-05-18 00:00:00,
2013-05-17 19:05:00,64.8,56.7,29.75,East,90,30.0,30.0,75,0.00,,,0.00,meteohub,2013-05-18 00:05:00,
2013-05-17 19:10:00,63.9,56.1,29.75,SE,135,26.0,30.0,76,0.00,,,0.00,meteohub,2013-05-18 00:10:00,
2013-05-17 19:15:00,63.7,56.7,29.75,SE,135,23.0,30.0,78,0.00,,,0.00,meteohub,2013-05-18 00:15:00,
2013-05-17 19:21:00,64.0,57.0,29.75,East,90,23.0,30.0,78,0.00,,,0.00,meteohub,2013-05-18 00:21:00,
2013-05-17 19:26:00,63.5,56.5,29.76,SE,135,28.0,29.0,78,0.00,,,0.00,meteohub,2013-05-18 00:26:00,
2013-05-17 19:31:00,63.0,55.9,29.75,SE,135,28.0,28.0,78,0.00,,,0.00,meteohub,2013-05-18 00:31:00,
2013-05-17 19:36:00,62.8,56.1,29.76,East,90,28.0,28.0,79,0.00,,,0.00,meteohub,2013-05-18 00:36:00,
2013-05-17 19:41:00,62.6,55.9,29.75,SE,135,23.0,28.0,79,0.00,,,0.00,meteohub,2013-05-18 00:41:00,
2013-05-17 19:46:00,62.6,55.9,29.75,SE,135,25.0,28.0,79,0.00,,,0.00,meteohub,2013-05-18 00:46:00,
2013-05-17 19:51:00,62.1,56.1,29.75,East,90,29.0,29.0,81,0.00,,,0.00,meteohub,2013-05-18 00:51:00,
2013-05-17 19:56:00,61.9,55.9,29.75,East,90,23.0,31.0,81,0.00,,,0.00,meteohub,2013-05-18 00:56:00,
2013-05-17 20:01:00,61.7,56.1,29.76,East,90,17.0,31.0,82,0.00,,,0.00,meteohub,2013-05-18 01:01:00,
2013-05-17 20:06:00,61.5,55.9,29.76,SE,135,24.0,31.0,82,0.00,,,0.00,meteohub,2013-05-18 01:06:00,
2013-05-17 20:11:00,61.3,55.8,29.76,SE,135,24.0,31.0,82,0.00,,,0.00,meteohub,2013-05-18 01:11:00,
2013-05-17 20:16:00,61.3,55.8,29.75,ESE,113,20.0,24.0,82,0.00,,,0.00,meteohub,2013-05-18 01:16:00,
2013-05-17 20:21:00,61.2,55.6,29.75,NE,45,17.0,27.0,82,0.00,,,0.00,meteohub,2013-05-18 01:21:00,
2013-05-17 20:27:00,61.2,55.9,29.76,ESE,113,21.0,27.0,83,0.00,,,0.00,meteohub,2013-05-18 01:27:00,
2013-05-17 20:32:00,61.0,55.8,29.75,SE,135,27.0,27.0,83,0.00,,,0.00,meteohub,2013-05-18 01:32:00,
2013-05-17 20:37:00,61.0,55.8,29.76,SE,135,23.0,27.0,83,0.00,,,0.00,meteohub,2013-05-18 01:37:00,
2013-05-17 20:42:00,60.6,55.8,29.76,SE,135,21.0,27.0,84,0.00,,,0.00,meteohub,2013-05-18 01:42:00,
2013-05-17 20:47:00,60.4,55.9,29.75,East,90,23.0,27.0,85,0.00,,,0.00,meteohub,2013-05-18 01:47:00,
2013-05-17 20:52:00,60.4,55.9,29.75,SE,135,26.0,30.0,85,0.00,,,0.00,meteohub,2013-05-18 01:52:00,
2013-05-17 20:57:00,60.3,55.8,29.75,East,90,24.0,30.0,85,0.00,,,0.00,meteohub,2013-05-18 01:57:00,
2013-05-17 21:02:00,60.1,55.9,29.75,SE,135,26.0,27.0,86,0.00,,,0.00,meteohub,2013-05-18 02:02:00,
2013-05-17 21:07:00,59.9,55.8,29.76,SE,135,21.0,27.0,86,0.00,,,0.00,meteohub,2013-05-18 02:07:00,
2013-05-17 21:12:00,59.9,55.8,29.77,SE,135,21.0,26.0,86,0.00,,,0.00,meteohub,2013-05-18 02:12:00,
2013-05-17 21:17:00,59.7,55.8,29.77,SE,135,24.0,26.0,87,0.00,,,0.00,meteohub,2013-05-18 02:17:00,
2013-05-17 21:22:00,59.5,55.6,29.78,East,90,17.0,26.0,87,0.00,,,0.00,meteohub,2013-05-18 02:22:00,
2013-05-17 21:27:00,59.5,55.6,29.77,East,90,24.0,26.0,87,0.00,,,0.00,meteohub,2013-05-18 02:27:00,
2013-05-17 21:32:00,59.4,55.8,29.78,SE,135,25.0,26.0,88,0.00,,,0.00,meteohub,2013-05-18 02:32:00,
2013-05-17 21:37:00,59.2,55.6,29.78,East,90,23.0,26.0,88,0.00,,,0.00,meteohub,2013-05-18 02:37:00,
2013-05-17 21:42:00,59.0,55.4,29.78,East,90,28.0,28.0,88,0.00,,,0.00,meteohub,2013-05-18 02:42:00,
2013-05-17 21:48:00,59.0,55.4,29.78,SE,135,22.0,28.0,88,0.00,,,0.00,meteohub,2013-05-18 02:48:00,
2013-05-17 21:53:00,58.8,55.6,29.77,East,90,27.0,29.0,89,0.00,,,0.00,meteohub,2013-05-18 02:53:00,
2013-05-17 21:58:00,58.8,55.9,29.78,SE,135,24.0,29.0,90,0.00,,,0.00,meteohub,2013-05-18 02:58:00,
2013-05-17 22:03:00,58.6,55.8,29.77,SE,135,27.0,31.0,90,0.00,,,0.00,meteohub,2013-05-18 03:03:00,
2013-05-17 22:08:00,58.6,55.8,29.78,SE,135,22.0,31.0,90,0.00,,,0.00,meteohub,2013-05-18 03:08:00,
2013-05-17 22:13:00,58.6,55.8,29.77,ESE,113,24.0,29.0,90,0.00,,,0.00,meteohub,2013-05-18 03:13:00,
2013-05-17 22:18:00,58.6,55.9,29.77,SE,135,23.0,28.0,91,0.00,,,0.00,meteohub,2013-05-18 03:18:00,
2013-05-17 22:23:00,58.6,55.9,29.77,SE,135,24.0,27.0,91,0.00,,,0.00,meteohub,2013-05-18 03:23:00,
2013-05-17 22:28:00,58.6,55.9,29.77,SE,135,21.0,26.0,91,0.00,,,0.00,meteohub,2013-05-18 03:28:00,
2013-05-17 22:33:00,58.8,56.1,29.78,SE,135,18.0,29.0,91,0.00,,,0.00,meteohub,2013-05-18 03:33:00,
2013-05-17 22:38:00,58.6,55.9,29.78,SE,135,24.0,29.0,91,0.00,,,0.00,meteohub,2013-05-18 03:38:00,
2013-05-17 22:43:00,58.8,56.1,29.78,SE,135,23.0,29.0,91,0.00,,,0.00,meteohub,2013-05-18 03:43:00,
2013-05-17 22:48:00,58.8,56.1,29.78,SE,135,23.0,27.0,91,0.00,,,0.00,meteohub,2013-05-18 03:48:00,
2013-05-17 22:53:00,58.8,56.1,29.78,SE,135,23.0,27.0,91,0.00,,,0.00,meteohub,2013-05-18 03:53:00,
2013-05-17 22:58:00,58.8,56.1,29.78,SE,135,19.0,26.0,91,0.00,,,0.00,meteohub,2013-05-18 03:58:00,
2013-05-17 23:01:00,58.8,56.1,29.78,SE,135,21.0,27.0,91,0.00,,,0.00,meteohub,2013-05-18 04:01:00,
2013-05-17 23:02:00,58.8,56.1,29.78,SE,135,21.0,27.0,91,0.00,,,0.00,meteohub,2013-05-18 04:02:00,
2013-05-17 23:03:00,58.8,56.1,29.77,East,90,22.0,27.0,91,0.00,,,0.00,meteohub,2013-05-18 04:03:00,
2013-05-17 23:05:00,58.8,56.1,29.77,East,90,21.0,27.0,91,0.00,,,0.00,meteohub,2013-05-18 04:05:00,
2013-05-17 23:10:00,58.8,56.1,29.78,SE,135,23.0,27.0,91,0.00,,,0.00,meteohub,2013-05-18 04:10:00,
2013-05-17 23:15:00,58.8,56.1,29.77,SE,135,23.0,27.0,91,0.00,,,0.00,meteohub,2013-05-18 04:15:00,
2013-05-17 23:20:00,58.8,56.1,29.77,SE,135,23.0,27.0,91,0.00,,,0.00,meteohub,2013-05-18 04:20:00,
2013-05-17 23:25:00,58.8,56.1,29.77,SE,135,25.0,28.0,91,0.00,,,0.00,meteohub,2013-05-18 04:25:00,
2013-05-17 23:30:00,58.8,56.1,29.77,SE,135,21.0,28.0,91,0.00,,,0.00,meteohub,2013-05-18 04:30:00,
2013-05-17 23:35:00,58.8,56.1,29.77,SE,135,21.0,27.0,91,0.00,,,0.00,meteohub,2013-05-18 04:35:00,
2013-05-17 23:40:00,58.8,56.1,29.77,SE,135,22.0,27.0,91,0.00,,,0.00,meteohub,2013-05-18 04:40:00,
2013-05-17 23:45:00,58.8,56.1,29.77,SE,135,17.0,27.0,91,0.00,,,0.00,meteohub,2013-05-18 04:45:00,
2013-05-17 23:50:00,58.8,56.1,29.77,SE,135,23.0,25.0,91,0.00,,,0.00,meteohub,2013-05-18 04:50:00,
2013-05-17 23:55:00,58.8,56.1,29.78,SE,135,19.0,24.0,91,0.00,,,0.00,meteohub,2013-05-18 04:55:00,